Temperature
24 24 23 23 24 26 26 27 29 29 30 30 30 29 28 26 24 22 22 22 21 21 21 21 21 21 20 20 20 20 20 20 20 19 19 19 19 19 19 19 19 19 19 19 19 19 19 19 19
24 23 24 24 25 26 26 28 28 29 30 30 29 28 27 26 24 23 23 22 21 21 21 21 21 21 20 20 20 20 20 20 20 20 19 19 19 19 19 19 19 19 19 19 19 19 19 19 19
24 24 25 25 27 26 27 28 29 30 30 29 28 27 26 25 24 23 22 22 21 20 20 21 21 21 20 20 20 20 20 20 20 20 19 19 19 19 19 19 19 19 19 19 19 19 18 18 18
25 26 26 27 27 28 28 28 29 30 29 29 28 26 25 24 24 22 22 22 21 20 20 21 20 20 20 20 20 20 20 20 20 19 19 19 19 19 19 19 19 19 19 19 19 19 18 18 18
26 26 25 27 27 28 29 29 29 29 29 28 27 25 24 24 23 23 23 23 22 21 20 21 21 20 20 20 20 19 19 19 19 19 19 19 19 19 19 19 19 19 19 19 19 19 18 18 18
27 26 25 26 27 27 28 28 28 28 28 28 27 25 24 24 24 24 23 23 22 21 21 21 21 21 20 20 20 19 19 19 19 19 19 19 19 19 19 19 19 19 19 19 19 18 18 18 18
28 26 26 27 26 27 28 28 28 27 27 27 26 25 24 23 23 23 23 23 22 22 21 21 21 21 20 20 20 20 19 19 19 19 19 19 19 19 19 19 19 19 19 19 19 19 18 18 18
28 27 26 26 26 26 28 28 27 26 26 25 25 24 23 23 23 23 23 23 22 22 22 21 20 20 20 20 20 20 19 19 19 19 19 19 19 19 19 19 19 19 19 19 19 19 19 18 18
29 25 23 25 26 26 28 27 26 25 24 23 22 21 21 22 22 22 22 22 22 21 21 21 20 20 20 20 20 19 19 19 19 19 19 19 19 19 19 19 19 19 19 19 19 19 19 18 18
30 25 24 27 27 27 26 25 25 23 22 21 20 20 20 21 21 21 20 20 20 20 20 20 20 20 20 20 19 19 19 19 19 19 19 19 19 18 18 18 18 18 19 19 19 19 19 19 19
29 27 28 28 28 26 25 22 22 22 20 19 19 19 19 19 19 19 19 19 19 19 20 20 20 20 20 20 19 19 19 19 19 19 19 18 18 18 18 18 18 18 19 19 19 19 19 19 19
28 28 28 28 27 26 25 23 20 19 19 19 19 19 19 19 19 18 18 18 19 19 19 19 20 20 20 20 20 19 19 19 19 18 18 18 18 18 18 18 18 18 18 19 18 19 19 19 19
27 27 26 25 24 23 22 21 20 19 19 19 19 19 19 19 19 19 19 18 18 18 18 18 19 19 19 19 19 19 19 19 19 19 19 18 18 18 18 18 18 18 18 18 18 18 19 19 19
28 27 27 26 25 24 23 22 20 19 20 20 20 20 20 19 19 19 19 19 18 18 18 18 18 18 19 19 19 19 19 19 19 19 19 18 18 18 18 18 18 18 18 18 18 19 19 20 20
28 27 27 26 25 24 23 21 20 20 20 21 20 20 20 20 20 19 19 18 18 18 18 17 17 18 18 18 18 19 19 19 19 19 19 19 18 18 18 18 18 18 18 18 18 19 19 20 20
29 27 24 25 25 25 24 20 21 20 21 21 20 21 20 20 20 19 18 18 17 17 17 17 17 17 17 17 18 18 18 18 18 18 18 19 18 18 18 18 18 18 18 18 19 19 19 20 20
27 26 22 23 25 25 23 20 21 20 21 21 20 20 20 20 19 18 17 17 17 16 16 16 16 16 16 17 17 17 17 18 18 18 18 18 18 18 18 18 18 18 18 18 18 18 19 19 19
26 26 26 25 25 25 23 21 21 20 20 20 20 20 19 19 18 17 17 16 16 16 15 15 16 16 16 16 16 16 16 17 17 17 17 18 18 18 18 18 18 18 18 18 18 18 18 18 19
27 27 27 25 25 24 23 22 21 21 20 20 20 19 19 18 17 16 16 15 15 15 15 15 15 15 15 15 15 15 15 16 16 17 17 17 17 17 17 18 18 18 18 18 18 18 18 18 18
27 27 27 25 24 24 23 22 21 21 20 19 19 18 18 17 16 16 15 14 14 14 14 14 14 14 14 14 14 14 14 15 15 16 16 16 17 17 17 17 17 18 18 18 18 18 18 18 18
26 26 25 25 24 24 23 22 21 21 20 19 18 18 17 16 16 15 14 14 13 13 13 13 13 13 13 13 14 14 14 14 15 15 15 16 16 16 17 17 17 17 17 18 17 17 17 17 17
25 24 24 24 23 23 23 21 20 20 20 19 18 17 17 16 15 14 14 13 13 13 13 13 13 13 13 13 13 13 13 13 14 14 15 15 16 16 16 17 17 17 17 17 17 17 17 17 17
23 23 23 23 23 23 24 22 19 20 19 18 18 17 16 16 15 14 14 13 13 13 12 12 13 13 13 13 13 13 13 13 14 14 14 15 15 16 16 16 16 16 16 17 17 17 17 17 17
23 23 24 24 23 22 23 22 19 19 18 18 18 17 16 16 15 14 14 13 13 13 12 12 12 13 13 13 13 13 13 13 14 14 14 15 15 15 15 16 16 16 16 16 17 17 16 17 17
24 23 23 23 22 22 23 22 18 19 19 18 18 17 16 16 15 14 14 13 13 13 12 12 12 12 12 13 13 13 13 13 13 13 14 14 14 15 15 15 15 16 16 16 16 16 16 16 16
23 23 22 21 22 22 22 21 19 19 19 18 17 17 16 16 15 15 14 13 13 13 12 12 12 12 12 12 12 12 13 13 13 13 13 14 14 14 14 15 15 15 16 16 16 16 16 16 16
22 23 24 22 23 23 22 20 19 20 19 18 18 17 16 16 15 15 14 14 13 13 13 12 12 12 12 12 12 12 12 12 13 13 13 13 13 14 14 14 15 15 15 15 15 16 16 16 16
22 22 22 22 22 21 22 21 19 19 19 19 18 17 16 16 15 15 14 14 14 13 13 13 12 12 12 12 12 12 12 12 12 12 13 13 13 13 14 14 14 14 15 15 15 15 15 15 15
22 23 22 22 22 21 20 19 20 19 18 18 18 17 16 16 16 15 15 14 14 13 13 13 12 12 12 12 12 12 12 12 12 12 12 13 13 13 13 13 14 14 14 14 14 15 15 15 15
21 21 21 21 21 22 20 19 20 19 19 18 18 17 17 16 16 16 15 15 14 14 13 13 12 12 12 12 12 12 11 11 12 12 12 12 12 13 13 13 13 13 13 14 14 14 14 14 14
Wind_Speed
10 11 8 4 3 2 10 10 12 10 11 11 11 10 16 15 9 8 6 11 18 17 17 15 14 13 11 10 9 9 8 8 7 6 5 5 4 4 3 3 2 2 2 2 2 2 2 3 4
10 9 5 2 1 8 8 9 11 12 11 11 14 16 17 14 13 10 8 13 18 17 16 15 15 13 11 10 9 8 8 7 7 6 5 4 4 3 3 3 2 2 2 2 2 2 2 3 4
10 7 3 3 6 9 8 8 8 11 13 13 16 18 13 9 12 9 9 13 15 15 16 17 15 12 11 9 8 8 7 6 6 5 5 4 4 3 3 2 2 2 2 2 2 2 3 3 4
6 3 3 1 10 9 8 9 9 12 15 17 14 11 13 12 12 12 12 14 14 14 17 16 14 12 10 9 8 8 7 6 6 5 5 4 4 3 3 2 2 2 2 2 2 3 3 3 4
4 2 2 5 10 9 10 12 12 12 15 17 19 17 15 14 14 12 11 12 12 14 17 16 15 12 10 8 8 7 7 6 6 6 5 5 5 4 4 3 3 2 2 2 3 3 4 4 4
2 1 1 4 9 7 9 13 12 12 15 16 16 16 13 12 9 9 9 8 10 12 15 17 17 14 12 10 9 8 8 7 7 7 6 6 5 5 5 4 4 3 2 2 3 4 4 4 4
4 2 2 5 6 5 11 12 12 14 16 15 13 14 10 10 7 8 8 7 8 9 12 14 15 15 14 13 11 10 9 9 9 9 8 8 7 7 6 6 5 5 4 3 4 4 5 5 4
4 3 3 3 7 7 10 13 15 16 16 17 14 10 8 7 7 8 7 6 6 5 5 8 12 14 14 14 15 14 12 11 11 11 10 10 9 9 9 9 8 7 6 5 5 5 5 6 6
5 3 3 2 6 7 10 12 14 15 16 18 17 15 11 10 10 9 8 9 8 8 7 5 3 6 10 14 16 16 14 14 13 12 13 12 12 13 13 14 13 11 9 7 7 7 7 7 8
0 3 3 3 10 10 13 13 7 10 15 14 15 15 14 13 13 13 12 11 11 11 11 10 8 6 5 1 9 12 12 12 13 12 13 14 13 13 14 16 16 14 11 10 9 9 9 10 10
5 5 6 8 10 11 11 12 16 10 10 10 11 12 12 13 13 12 11 10 10 10 11 11 10 8 7 5 2 2 3 7 9 11 12 13 13 10 9 11 14 13 13 11 12 11 11 12 12
7 9 8 8 8 10 10 9 11 14 8 7 8 9 10 11 10 9 8 8 7 8 9 9 10 9 7 6 4 2 1 0 2 6 9 9 6 6 6 7 11 12 12 11 11 10 14 15 16
8 8 10 12 14 16 16 14 11 10 6 5 6 8 8 9 7 5 5 5 5 4 5 5 6 7 6 5 4 3 1 0 2 3 3 6 4 5 4 5 8 11 12 11 7 9 10 9 9
7 10 9 9 9 10 13 11 7 6 4 5 6 6 7 7 6 6 6 6 6 5 4 3 4 4 4 4 4 3 3 3 3 3 4 5 6 5 4 4 3 5 8 9 8 7 6 4 2
6 7 8 7 9 10 9 10 7 4 3 5 5 5 6 7 6 8 9 9 9 8 7 6 5 3 4 4 4 4 4 4 3 4 5 5 5 5 3 4 4 3 5 6 6 7 5 4 3
8 8 4 2 2 5 4 6 6 4 4 5 6 6 6 6 9 10 11 11 10 10 10 8 8 5 5 4 4 3 4 4 4 4 4 4 5 5 4 4 4 4 3 3 2 3 2 2 3
6 4 5 5 2 2 6 6 5 4 5 6 7 8 8 9 11 11 12 12 11 9 9 10 9 7 6 6 4 4 4 4 4 5 4 5 6 6 4 4 4 4 2 2 2 2 2 1 2
7 8 6 6 4 3 6 6 5 5 6 7 7 8 9 11 12 13 13 12 10 9 10 11 9 8 7 6 5 4 5 4 3 3 5 7 6 6 4 3 5 4 3 2 2 2 2 1 1
12 12 11 7 5 3 3 4 6 6 6 9 10 11 11 12 13 13 13 13 13 12 11 11 11 9 7 5 5 5 5 4 4 4 6 7 7 8 5 5 5 5 5 5 5 3 3 2 2
11 12 9 6 6 3 1 3 7 5 6 8 11 12 13 13 13 12 13 14 13 12 12 12 11 10 9 6 6 6 6 5 6 5 5 6 7 8 8 8 7 6 6 7 7 5 3 3 2
12 8 10 8 2 3 4 4 7 6 7 8 9 11 12 13 14 14 14 13 12 12 13 12 11 11 10 9 6 7 6 5 5 6 5 5 6 7 7 8 8 8 8 8 8 8 7 6 4
8 9 8 8 7 5 6 2 8 6 6 7 9 10 11 11 12 12 12 12 13 13 12 13 12 12 11 9 7 8 7 7 7 6 6 6 5 6 6 7 8 8 8 8 9 9 7 7 6
7 8 8 9 9 9 7 3 7 5 6 8 9 9 9 10 10 10 11 11 11 11 11 11 11 11 11 10 9 8 7 6 6 6 6 6 5 5 5 5 6 8 8 8 9 9 10 9 8
6 9 10 8 8 8 3 1 6 4 7 8 8 9 9 9 9 9 9 9 9 9 10 10 10 11 11 11 10 9 9 8 8 7 6 5 4 4 5 5 5 5 6 8 9 9 10 10 10
6 8 5 4 4 1 3 2 6 6 6 6 7 8 8 7 8 8 8 9 9 9 10 10 10 10 11 11 10 9 10 9 8 8 6 6 4 4 4 3 3 3 4 5 6 8 9 10 11
8 6 6 5 3 2 2 3 6 5 4 3 5 7 7 7 7 7 8 7 7 8 8 9 9 9 10 10 9 9 9 7 7 8 7 6 5 4 5 3 2 2 2 3 3 4 6 7 9
7 7 6 5 11 5 5 7 6 5 4 3 5 6 7 7 7 7 7 7 7 7 7 7 8 8 9 9 8 8 9 9 9 9 8 6 6 5 5 4 3 1 1 1 1 2 3 4 5
2 4 6 5 6 5 0 4 4 4 2 3 5 5 6 7 7 7 6 6 6 6 5 6 6 7 8 8 8 7 8 8 8 8 9 8 8 7 6 6 5 4 3 2 1 1 1 2 3
5 3 4 5 3 3 4 4 5 4 2 2 3 4 4 5 5 5 5 5 5 6 6 6 6 7 7 8 7 7 7 7 7 8 8 8 8 9 8 9 8 7 6 5 4 3 2 2 2
2 4 6 5 6 3 2 3 6 4 2 1 2 2 3 3 3 3 4 4 4 5 5 6 6 6 6 7 7 7 7 8 9 9 9 8 9 9 8 9 9 9 9 7 6 4 3 3 3
Wind_Direction
245 232 229 247 265 72 62 56 52 36 40 44 33 48 66 56 56 87 150 135 122 123 131 136 136 133 130 127 124 122 121 122 123 124 123 120 114 110 105 95 85 75 66 66 64 56 65 74 69
257 224 229 258 305 78 64 59 57 41 42 58 54 51 65 60 78 104 127 117 124 127 140 140 141 140 138 137 136 134 132 131 131 132 131 129 126 122 117 113 109 103 97 95 92 92 98 102 94
257 240 247 232 65 74 74 60 57 54 47 63 73 60 52 57 82 105 118 128 125 130 132 133 144 145 145 145 146 145 144 142 141 141 142 142 140 137 131 125 121 117 118 119 113 106 118 121 124
259 249 263 91 80 75 71 64 52 54 53 59 67 67 61 58 85 113 139 133 127 127 125 137 145 149 152 155 159 158 157 157 157 157 157 156 158 158 154 149 139 129 126 130 132 133 139 143 144
249 307 358 77 76 63 62 64 53 51 51 68 80 82 75 73 91 122 137 130 134 131 132 144 150 156 162 168 172 170 171 173 174 172 171 172 176 178 174 169 161 150 140 140 146 152 154 158 163
272 106 61 91 86 77 61 60 56 49 47 56 84 88 79 77 90 110 112 122 125 128 137 147 158 164 171 179 182 184 187 189 190 190 188 191 192 190 189 183 175 169 165 161 162 167 169 168 175
279 251 134 108 85 67 75 70 63 57 43 38 74 90 78 65 64 79 90 87 104 125 138 153 164 172 180 186 190 193 198 200 201 202 201 204 206 206 202 196 190 185 183 184 181 179 181 184 192
283 327 34 85 102 67 65 68 66 62 50 37 44 70 74 54 58 65 70 73 76 82 114 154 165 173 181 189 195 198 202 204 207 209 208 210 212 214 212 205 200 196 195 196 195 194 196 200 205
273 53 35 67 103 79 75 80 80 67 60 53 50 54 55 47 48 52 50 45 40 32 27 41 108 166 187 189 189 194 203 206 208 212 214 213 215 214 210 215 196 195 199 202 204 205 208 213 217
323 96 137 65 93 86 62 47 52 70 52 41 38 36 35 41 42 41 39 33 29 22 17 19 20 18 356 305 170 186 196 200 208 216 210 211 226 227 215 204 188 192 199 205 211 213 216 223 221
61 89 77 68 88 106 92 55 36 79 53 36 29 29 33 37 38 37 31 27 20 14 14 9 5 7 12 4 14 175 177 184 205 221 214 213 230 242 219 184 183 192 199 208 210 214 223 223 221
74 60 69 66 62 76 79 80 60 60 63 48 44 37 39 39 36 31 28 24 20 13 6 3 359 356 355 357 354 353 28 169 232 224 217 210 226 238 233 195 188 191 197 207 199 210 219 224 218
103 94 88 86 84 85 85 83 80 66 66 59 53 47 43 42 36 32 24 22 24 17 357 358 354 354 346 347 335 337 342 2 280 266 230 205 206 226 240 229 204 197 197 202 208 211 225 221 210
136 135 132 119 105 99 95 84 74 53 41 52 43 45 35 34 21 18 21 11 5 3 354 353 346 341 333 334 327 318 326 317 286 260 245 227 208 211 227 246 224 215 209 198 201 221 244 218 229
149 162 150 137 138 144 125 80 66 37 13 34 19 36 31 18 6 16 11 2 356 352 345 345 323 317 318 320 311 307 296 289 279 275 263 247 218 209 215 240 244 238 233 221 211 227 234 193 195
208 201 151 100 156 178 252 89 69 21 8 19 3 9 18 12 7 13 7 358 353 349 339 329 321 326 318 301 286 274 272 264 258 263 269 269 251 222 200 226 238 241 248 256 235 265 256 190 181
227 245 165 181 195 128 75 94 79 38 4 10 9 359 3 6 9 10 3 354 347 340 331 323 323 320 311 302 286 270 263 253 248 245 241 244 250 241 212 207 223 238 225 230 233 233 261 239 200
319 298 273 158 105 68 99 116 107 52 17 9 6 5 8 9 7 9 359 350 342 340 336 328 324 320 317 306 297 287 279 273 261 241 231 230 235 243 237 213 210 212 226 241 231 224 256 265 227
312 300 299 101 97 33 69 102 99 62 27 17 10 12 9 7 3 6 359 357 352 348 340 330 328 328 325 321 315 309 302 295 284 266 251 231 226 231 233 233 216 203 200 207 216 212 227 245 275
297 297 309 100 83 1 238 148 108 80 50 36 14 8 8 2 360 0 0 0 351 346 340 333 334 333 332 323 315 303 299 292 282 276 266 250 232 223 230 227 219 207 201 200 206 205 206 219 227
314 342 348 344 15 264 244 184 130 116 67 47 24 14 8 4 360 358 0 359 353 352 347 340 340 338 336 330 323 314 305 293 285 285 281 268 256 237 228 226 222 209 201 201 202 201 200 205 215
332 19 336 307 284 247 214 222 131 121 70 41 27 17 11 8 4 4 3 360 358 356 352 348 348 347 345 338 328 320 308 299 294 292 287 283 270 258 241 233 227 218 208 202 201 199 198 196 209
327 328 295 280 269 269 233 234 129 107 38 28 24 15 15 10 8 8 4 359 0 358 358 354 355 354 351 347 340 331 321 309 304 301 297 293 285 276 266 247 234 223 214 206 202 199 197 202 204
288 276 254 246 257 251 230 264 110 62 26 14 16 15 16 9 8 9 8 360 1 3 1 360 2 0 357 355 353 347 337 334 332 327 316 310 305 296 282 265 248 233 222 213 208 206 202 205 205
268 300 289 232 217 223 91 86 90 72 47 24 18 18 15 14 11 8 8 1 2 4 3 1 2 359 358 358 358 355 350 350 350 341 332 327 323 314 305 290 267 246 236 225 210 208 209 208 205
319 309 324 318 328 150 171 95 107 97 88 46 41 26 12 16 15 11 9 5 3 5 1 0 1 359 358 1 0 3 2 2 1 356 351 350 346 332 330 328 308 273 251 241 215 209 213 206 209
328 344 343 298 295 295 130 118 134 144 106 62 42 27 15 12 14 14 9 8 5 5 0 356 0 2 359 0 359 6 8 8 6 3 1 358 351 356 1 359 358 353 339 265 201 200 207 202 200
328 319 314 305 341 335 287 128 125 122 61 53 49 26 15 10 8 10 1 4 6 1 1 3 10 8 2 0 5 11 7 7 9 6 5 1 358 6 15 21 26 29 37 50 76 117 173 165 165
338 314 325 294 272 313 340 75 74 86 73 29 47 26 6 2 357 356 357 2 9 3 12 9 14 16 7 1 1 9 9 5 12 9 5 8 9 14 24 25 32 36 36 38 46 49 66 97 116
20 358 338 329 346 337 308 103 96 102 114 73 42 17 353 345 334 341 360 360 11 6 11 15 15 14 9 2 3 12 14 12 18 13 7 13 16 16 25 32 34 33 29 25 31 42 54 73 92
Height
1511 1511 1512 1515 1516 1516 1520 1513 1507 1506 1504 1504 1503 1503 1508 1514 1521 1532 1532 1533 1533 1534 1536 1538 1540 1542 1543 1545 1546 1547 1549 1550 1551 1552 1552 1553 1554 1555 1556 1556 1557 1558 1558 1559 1559 1560 1560 1561 1561
1511 1514 1516 1516 1518 1527 1525 1513 1510 1508 1506 1506 1507 1509 1512 1518 1523 1528 1531 1534 1535 1535 1537 1539 1541 1543 1544 1545 1547 1548 1549 1550 1551 1552 1553 1553 1554 1555 1556 1556 1557 1558 1558 1559 1559 1560 1560 1561 1562
1513 1516 1517 1515 1517 1525 1524 1513 1510 1509 1508 1508 1511 1516 1519 1523 1526 1530 1533 1535 1537 1538 1539 1540 1542 1543 1545 1546 1547 1548 1549 1550 1551 1552 1553 1553 1554 1555 1556 1556 1557 1557 1558 1559 1559 1560 1560 1561 1562
1516 1517 1516 1515 1520 1517 1515 1513 1511 1511 1511 1511 1514 1520 1526 1528 1529 1532 1535 1537 1539 1540 1540 1542 1543 1544 1545 1546 1547 1548 1549 1550 1551 1552 1553 1553 1554 1555 1556 1556 1557 1557 1558 1558 1559 1560 1560 1561 1562
1518 1518 1519 1521 1520 1515 1513 1513 1514 1514 1514 1516 1520 1526 1530 1533 1533 1535 1537 1539 1541 1541 1541 1543 1544 1545 1546 1547 1548 1549 1549 1550 1551 1552 1552 1553 1554 1555 1555 1556 1556 1557 1557 1558 1558 1559 1560 1561 1562
1519 1518 1528 1530 1524 1519 1517 1517 1519 1518 1519 1520 1523 1528 1534 1536 1537 1538 1540 1541 1542 1542 1542 1543 1545 1545 1546 1547 1548 1548 1549 1550 1550 1551 1552 1553 1554 1554 1555 1555 1556 1556 1557 1557 1558 1559 1560 1560 1562
1518 1518 1525 1524 1526 1522 1518 1520 1521 1523 1524 1525 1526 1530 1537 1539 1540 1540 1541 1543 1543 1544 1543 1543 1544 1545 1546 1547 1548 1548 1549 1549 1550 1550 1551 1552 1553 1553 1554 1555 1555 1555 1556 1556 1557 1558 1559 1560 1561
1517 1516 1523 1525 1528 1527 1522 1523 1526 1528 1530 1531 1530 1535 1540 1542 1542 1542 1542 1543 1544 1545 1545 1544 1544 1544 1545 1546 1547 1548 1548 1548 1549 1549 1550 1551 1551 1552 1553 1554 1554 1555 1555 1556 1556 1557 1558 1559 1560
1517 1524 1535 1527 1525 1526 1524 1527 1530 1533 1535 1537 1539 1541 1543 1543 1543 1543 1543 1544 1544 1545 1545 1545 1545 1545 1544 1544 1545 1546 1546 1547 1547 1548 1548 1549 1550 1551 1551 1552 1553 1554 1554 1555 1555 1556 1557 1559 1560
1516 1528 1531 1522 1520 1525 1529 1531 1532 1538 1540 1542 1544 1544 1544 1543 1543 1543 1543 1544 1544 1544 1544 1544 1544 1544 1545 1545 1544 1544 1545 1545 1546 1546 1546 1547 1548 1549 1550 1551 1552 1553 1553 1553 1554 1555 1556 1558 1559
1517 1523 1522 1522 1524 1528 1532 1538 1538 1540 1546 1549 1549 1548 1547 1545 1545 1545 1545 1544 1544 1544 1543 1542 1542 1542 1543 1543 1543 1543 1543 1544 1544 1544 1544 1545 1546 1547 1548 1549 1550 1551 1551 1552 1553 1554 1555 1556 1557
1521 1523 1524 1526 1528 1530 1534 1540 1545 1547 1552 1552 1551 1550 1549 1548 1547 1547 1546 1545 1544 1543 1542 1541 1541 1541 1541 1541 1541 1540 1541 1541 1541 1542 1542 1542 1543 1543 1545 1546 1547 1548 1549 1550 1551 1552 1554 1555 1556
1524 1528 1530 1533 1535 1537 1541 1545 1548 1552 1553 1553 1552 1551 1551 1550 1549 1549 1548 1547 1545 1543 1542 1541 1539 1538 1538 1538 1538 1537 1538 1538 1537 1538 1539 1539 1540 1541 1542 1543 1545 1546 1547 1548 1549 1551 1552 1554 1556
1524 1528 1531 1533 1536 1539 1542 1547 1551 1554 1553 1553 1552 1552 1552 1551 1550 1550 1548 1547 1546 1544 1542 1540 1538 1537 1536 1535 1535 1534 1534 1535 1535 1535 1536 1536 1537 1538 1539 1540 1542 1543 1544 1546 1548 1549 1551 1553 1555
1525 1527 1530 1533 1536 1540 1541 1550 1553 1555 1554 1553 1553 1552 1552 1552 1551 1550 1549 1548 1546 1544 1542 1540 1538 1536 1534 1533 1532 1531 1531 1530 1531 1531 1531 1532 1533 1534 1536 1537 1539 1540 1541 1543 1545 1547 1549 1551 1553
1522 1527 1539 1535 1534 1537 1541 1554 1555 1556 1555 1554 1553 1552 1552 1552 1551 1550 1549 1547 1545 1543 1541 1539 1537 1535 1533 1531 1530 1528 1528 1527 1527 1527 1526 1527 1528 1529 1531 1533 1535 1536 1537 1539 1541 1544 1547 1548 1550
1524 1533 1543 1540 1534 1535 1541 1553 1555 1556 1556 1555 1554 1553 1553 1552 1551 1550 1548 1546 1544 1542 1539 1537 1535 1532 1530 1528 1527 1525 1524 1524 1523 1523 1523 1524 1524 1526 1526 1528 1530 1532 1533 1535 1537 1540 1543 1545 1547
1533 1530 1529 1534 1535 1535 1541 1549 1553 1556 1556 1556 1555 1554 1553 1553 1552 1550 1548 1545 1542 1540 1537 1534 1532 1529 1527 1525 1523 1522 1521 1520 1519 1519 1519 1519 1520 1521 1522 1523 1525 1527 1529 1531 1534 1537 1539 1542 1544
1528 1528 1527 1532 1534 1537 1541 1546 1551 1555 1557 1557 1556 1556 1555 1554 1553 1550 1547 1544 1540 1537 1534 1531 1529 1526 1524 1522 1520 1519 1517 1516 1515 1515 1514 1514 1515 1516 1517 1518 1520 1522 1524 1526 1529 1532 1535 1538 1540
1528 1528 1527 1530 1535 1537 1541 1545 1550 1555 1557 1559 1559 1558 1556 1555 1552 1549 1546 1543 1539 1535 1532 1529 1526 1523 1520 1518 1516 1515 1514 1512 1511 1510 1510 1510 1510 1511 1512 1513 1514 1516 1518 1521 1524 1527 1530 1533 1536
1530 1531 1534 1535 1536 1536 1541 1548 1551 1554 1557 1559 1560 1559 1558 1555 1553 1549 1546 1542 1538 1534 1531 1527 1524 1521 1518 1515 1513 1511 1509 1508 1507 1506 1505 1505 1505 1505 1506 1507 1508 1510 1512 1514 1517 1521 1524 1527 1531
1537 1536 1537 1537 1541 1541 1541 1555 1555 1553 1557 1558 1559 1559 1558 1556 1553 1550 1546 1542 1538 1534 1530 1526 1522 1518 1515 1512 1510 1508 1506 1504 1502 1501 1500 1500 1500 1500 1500 1501 1502 1504 1506 1509 1512 1515 1517 1521 1524
1540 1538 1538 1537 1538 1539 1536 1546 1559 1553 1558 1558 1559 1559 1558 1556 1554 1550 1547 1543 1538 1534 1530 1525 1521 1517 1514 1511 1508 1505 1503 1500 1498 1497 1496 1495 1495 1495 1495 1496 1497 1498 1500 1503 1505 1508 1511 1514 1518
1539 1538 1533 1533 1536 1545 1536 1544 1561 1557 1559 1559 1559 1559 1558 1557 1554 1551 1547 1543 1539 1535 1530 1525 1521 1517 1513 1510 1507 1504 1501 1498 1496 1494 1493 1492 1491 1491 1491 1491 1492 1493 1495 1497 1500 1502 1505 1508 1511
1535 1539 1544 1545 1551 1546 1536 1544 1560 1556 1557 1559 1560 1559 1558 1557 1554 1551 1547 1543 1539 1535 1531 1526 1522 1518 1514 1510 1507 1504 1501 1498 1495 1492 1491 1490 1489 1488 1487 1487 1488 1489 1490 1493 1495 1497 1500 1502 1505
1539 1540 1551 1557 1548 1546 1540 1547 1556 1554 1557 1558 1559 1559 1558 1556 1554 1551 1548 1544 1540 1536 1532 1528 1524 1520 1516 1511 1508 1505 1502 1499 1496 1493 1490 1489 1487 1486 1485 1485 1485 1485 1487 1489 1491 1493 1495 1497 1500
1543 1538 1537 1546 1537 1538 1539 1547 1553 1552 1555 1557 1558 1559 1558 1556 1554 1552 1548 1545 1541 1537 1533 1530 1526 1522 1518 1514 1510 1507 1503 1500 1497 1494 1492 1490 1488 1486 1485 1484 1483 1484 1485 1486 1488 1489 1491 1494 1496
1544 1545 1543 1544 1552 1555 1543 1544 1552 1553 1554 1555 1557 1558 1558 1556 1554 1552 1549 1545 1542 1539 1535 1532 1528 1524 1520 1516 1512 1509 1506 1502 1499 1496 1493 1491 1489 1487 1486 1485 1484 1484 1484 1485 1486 1488 1489 1491 1493
1545 1543 1543 1542 1542 1554 1557 1559 1548 1551 1554 1555 1556 1557 1557 1556 1554 1551 1548 1546 1543 1540 1536 1533 1529 1526 1522 1518 1515 1512 1508 1505 1503 1500 1497 1494 1492 1490 1488 1487 1486 1485 1485 1485 1486 1487 1488 1489 1491
1547 1549 1549 1554 1550 1545 1553 1560 1548 1551 1553 1555 1556 1557 1556 1555 1553 1550 1548 1545 1543 1540 1537 1534 1530 1527 1524 1521 1518 1515 1511 1508 1505 1503 1500 1498 1495 1493 1491 1489 1488 1487 1486 1486 1487 1487 1488 1489 1490